Weather observations for the past three days for
Kivalina, Kivalina Airport
| Date | Time (akdt) | Wind (mph) | Vis. (mi.) | Weather | Sky Cond. | Temperature (ºF) | Relative Humidity | Wind Chill (°F) | Heat Index (°F) | Pressure | Precipitation (in) | ||||||
|---|---|---|---|---|---|---|---|---|---|---|---|---|---|---|---|---|---|
| Air | Dwpt | 6 hour | altimeter (in) | sea level (mb) | 1 hr | 3 hr | 6 hr | ||||||||||
| Max. | Min. | ||||||||||||||||
| 05 | 18:53 | Calm | 10.00 | Overcast | OVC045 | 48.9 | 44.1 | 83% | 29.87 | 1011.5 | |||||||
| 05 | 17:53 | W 3 | 10.00 | Overcast | OVC045 | 48.9 | 45 | 86% | 29.86 | 1011.1 | |||||||
| 05 | 16:53 | W 6 | 10.00 | Overcast | OVC048 | 48.9 | 46 | 90% | 47 | 29.86 | 1011.2 | ||||||
| 05 | 15:53 | W 5 | 10.00 | Overcast | OVC048 | 48.9 | 45 | 50 | 45 | 86% | 48 | 29.85 | 1010.9 | ||||
| 05 | 14:53 | W 5 | 10.00 | Overcast | OVC049 | 50 | 44.1 | 80% | 49 | 29.84 | 1010.5 | ||||||
| 05 | 13:53 | W 6 | 10.00 | Overcast | OVC047 | 48.9 | 44.1 | 83% | 47 | 29.84 | 1010.3 | ||||||
| 05 | 12:53 | Calm | 10.00 | Overcast | OVC047 | 48 | 41 | 77% | 29.83 | 1010.2 | |||||||
| 05 | 09:53 | NE 6 | 10.00 | Overcast | OVC047 | 45 | 39.9 | 46 | 45 | 83% | 42 | 29.81 | 1009.5 | ||||
| 05 | 08:53 | NE 7 | 10.00 | Overcast | OVC045 | 45 | 39.9 | 83% | 42 | 29.81 | 1009.5 | ||||||
| 05 | 07:53 | E 10 | 10.00 | Overcast | OVC044 | 46 | 39 | 77% | 42 | 29.81 | 1009.4 | ||||||
| 05 | 06:53 | NE 13 | 10.00 | Overcast | OVC044 | 46 | 39 | 77% | 41 | 29.81 | 1009.3 | ||||||
| 05 | 05:53 | NE 12 | 10.00 | Overcast | OVC044 | 46 | 39 | 77% | 41 | 29.82 | 1009.6 | ||||||
| 05 | 04:53 | E 10 | 10.00 | Overcast | OVC044 | 45 | 39 | 80% | 40 | 29.82 | 1009.8 | ||||||
| 05 | 03:53 | NE 14 | 10.00 | Overcast | OVC045 | 46 | 39 | 46 | 45 | 77% | 40 | 29.83 | 1010.0 | ||||
| 05 | 02:53 | NE 14 | 10.00 | Overcast | OVC044 | 46 | 39 | 77% | 40 | 29.84 | 1010.4 | ||||||
| 05 | 01:53 | E 15 | 10.00 | Overcast | OVC047 | 46 | 39 | 77% | 40 | 29.83 | 1010.1 | ||||||
| 05 | 00:53 | E 14 | 10.00 | Overcast | OVC039 | 45 | 39 | 80% | 39 | 29.85 | 1010.7 | ||||||
| 04 | 23:53 | E 12 | 10.00 | Overcast | OVC022 | 45 | 39.9 | 83% | 40 | 29.86 | 1011.1 | ||||||
| 04 | 22:53 | E 15 | 10.00 | Overcast | OVC018 | 45 | 39.9 | 83% | 39 | 29.85 | 1010.8 | ||||||
| 04 | 21:53 | E 15 | 10.00 | Overcast | OVC016 | 46 | 41 | 46.9 | 44.1 | 83% | 40 | 29.86 | 1011.1 | 0.01 | |||
| 04 | 20:53 | E 14 | 10.00 | Overcast | OVC014 | 45 | 43 | 93% | 39 | 29.87 | 1011.4 | ||||||
| 04 | 19:53 | E 12 | 6.00 | Fog/Mist | OVC013 | 46 | 43 | 89% | 41 | 29.88 | 1011.7 | ||||||
| 04 | 18:53 | E 12 | 10.00 | Overcast | BKN013 OVC028 | 46.9 | 43 | 86% | 42 | 29.86 | 1011.3 | 0.01 | |||||
| 04 | 17:53 | E 8 | 10.00 | Overcast | OVC015 | 46 | 43 | 89% | 42 | 29.87 | 1011.4 | ||||||
| 04 | 16:53 | E 10 | 10.00 | Overcast | OVC013 | 45 | 43 | 93% | 40 | 29.87 | 1011.4 | 0.01 | |||||
| 04 | 15:53 | E 12 | 5.00 | Fog/Mist | OVC012 | 44.1 | 43 | 44.1 | 42.1 | 96% | 39 | 29.88 | 1011.7 | ||||
| 04 | 14:53 | E 10 | 1.75 | Fog/Mist | OVC013 | 43 | 42.1 | 97% | 38 | 29.87 | 1011.6 | ||||||
| 04 | 13:53 | E 14 | 1.50 | Light Rain Fog/Mist | FEW007 OVC013 | 44.1 | 43 | 96% | 38 | 29.87 | 1011.3 | ||||||
| 04 | 12:53 | E 12 | 1.75 | Fog/Mist | OVC018 | 43 | 41 | 93% | 37 | 29.87 | 1011.4 | ||||||
| 04 | 11:53 | E 12 | 10.00 | Overcast | BKN015 OVC020 | 43 | 39.9 | 89% | 37 | 29.86 | 1011.1 | ||||||
| 04 | 10:53 | E 13 | 10.00 | Overcast | OVC021 | 42.1 | 39 | 89% | 36 | 29.85 | 1010.8 | ||||||
| 04 | 09:53 | E 12 | 10.00 | Overcast | OVC018 | 41 | 37.9 | 41 | 39.9 | 89% | 35 | 29.84 | 1010.6 | ||||
| 04 | 08:53 | E 9 | 10.00 | Overcast | OVC016 | 41 | 37 | 86% | 36 | 29.83 | 1010.2 | ||||||
| 04 | 07:53 | E 9 | 10.00 | Overcast | SCT020 OVC025 | 39.9 | 36 | 86% | 34 | 29.82 | 1009.8 | ||||||
| 04 | 06:53 | E 8 | 10.00 | Overcast | BKN029 OVC049 | 39.9 | 37 | 89% | 35 | 29.81 | 1009.6 | ||||||
| 04 | 05:53 | NE 10 | 10.00 | Overcast | OVC033 | 39.9 | 36 | 86% | 34 | 29.81 | 1009.3 | ||||||
| 04 | 04:53 | NE 13 | 10.00 | Overcast | SCT032 BKN039 OVC080 | 39.9 | 36 | 86% | 33 | 29.8 | 1008.9 | ||||||
| 04 | 02:53 | E 16 | 10.00 | Overcast | SCT046 OVC060 | 39.9 | 36 | 86% | 32 | 29.79 | 1008.6 | ||||||
| 04 | 01:53 | NE 16 | 10.00 | Overcast | OVC035 | 39.9 | 36 | 86% | 32 | 29.78 | 1008.5 | ||||||
| 04 | 00:53 | NE 18 | 10.00 | Overcast | OVC035 | 39.9 | 36 | 86% | 31 | 29.77 | 1008.2 | ||||||
| 03 | 23:53 | NE 20 | 10.00 | Light Rain | OVC039 | 41 | 37 | 86% | 33 | 29.77 | 1008.0 | ||||||
| 03 | 22:53 | NE 20 | 10.00 | Overcast | OVC037 | 41 | 36 | 82% | 33 | 29.76 | 1007.9 | ||||||
| 03 | 21:53 | NE 17 | 10.00 | Light Rain | OVC044 | 39.9 | 37 | 41 | 39 | 89% | 32 | 29.77 | 1008.0 | 0.1 | |||
| 03 | 20:53 | NE 21 | 10.00 | Light Rain and Breezy | BKN050 OVC060 | 39.9 | 37 | 89% | 31 | 29.77 | 1008.2 | 0.03 | |||||
| 03 | 19:53 | NE 22 | 10.00 | Light Rain and Breezy | OVC041 | 39 | 37 | 93% | 29 | 29.79 | 1008.6 | 0.02 | |||||
| 03 | 18:53 | NE 17 | 10.00 | Light Rain | BKN032 OVC042 | 39 | 36 | 89% | 31 | 29.8 | 1009.1 | 0.04 | 0.05 | ||||
| 03 | 17:53 | NE 15 | 10.00 | Light Rain | BKN040 OVC050 | 39 | 36 | 89% | 31 | 29.81 | 1009.6 | 0.01 | |||||
| 03 | 16:53 | E 15 | 10.00 | Light Rain | FEW025 OVC040 | 39.9 | 34 | 79% | 32 | 29.82 | 1009.7 | ||||||
| 03 | 15:53 | E 15 | 10.00 | Overcast | SCT031 BKN060 OVC075 | 41 | 32 | 41 | 32 | 70% | 34 | 29.84 | 1010.3 | ||||
| 03 | 14:53 | E 16 | 10.00 | Overcast | OVC090 | 41 | 30 | 65% | 33 | 29.85 | 1010.6 | ||||||
| 03 | 13:53 | E 20 | 10.00 | Mostly Cloudy | BKN120 | 39.9 | 28.9 | 65% | 31 | 29.87 | 1011.5 | ||||||
| 03 | 12:53 | E 20 | 10.00 | Fair | CLR | 39 | 30 | 70% | 30 | 29.88 | 1011.7 | ||||||
| 03 | 11:53 | NE 14 | 10.00 | Fair | CLR | 37 | 30 | 76% | 29 | 29.9 | 1012.6 | ||||||
| 03 | 10:53 | NE 14 | 10.00 | Fair | CLR | 34 | 30 | 85% | 25 | 29.92 | 1013.1 | ||||||
| 03 | 09:53 | NE 12 | 10.00 | Fair | CLR | 32 | 28.9 | 32 | 28.9 | 88% | 24 | 29.94 | 1013.9 | ||||
| 03 | 08:53 | NE 9 | 10.00 | Fair | CLR | 30.9 | 28.9 | 92% | 24 | 29.95 | 1014.3 | ||||||
| 03 | 07:53 | NE 10 | 10.00 | Fair | CLR | 30.9 | 28 | 89% | 23 | 29.97 | 1014.8 | ||||||
| 03 | 06:53 | NE 8 | 10.00 | Fair | CLR | 30 | 27 | 88% | 23 | 30 | 1015.7 | ||||||
| 03 | 05:53 | N 9 | 10.00 | Fair | CLR | 30 | 28 | 92% | 22 | 29.99 | 1015.7 | ||||||
| 03 | 04:53 | NE 8 | 10.00 | Fair | CLR | 30.9 | 28.9 | 92% | 24 | 30.01 | 1016.2 | ||||||
| 03 | 03:53 | NE 7 | 10.00 | Fair | CLR | 30.9 | 28.9 | 39.9 | 30.9 | 92% | 25 | 30.02 | 1016.5 | ||||
| 03 | 02:53 | N 7 | 10.00 | Fair | CLR | 33.1 | 30 | 89% | 28 | 30.01 | 1016.4 | ||||||
| 03 | 01:53 | N 6 | 10.00 | Fair | CLR | 32 | 28.9 | 88% | 27 | 30.02 | 1016.4 | ||||||
| 03 | 00:53 | N 5 | 10.00 | Fair | CLR | 36 | 32 | 86% | 33 | 30.02 | 1016.5 | ||||||
| 02 | 23:53 | N 7 | 10.00 | Fair | CLR | 37 | 32 | 82% | 32 | 30.01 | 1016.4 | ||||||
| 02 | 22:53 | N 9 | 10.00 | A Few Clouds | FEW026 | 37.9 | 32 | 79% | 32 | 30 | 1015.7 | ||||||
| 02 | 21:53 | NW 12 | 10.00 | Overcast | OVC026 | 39.9 | 33.1 | 43 | 39 | 77% | 34 | 29.98 | 1015.2 | ||||
| 02 | 20:53 | NW 12 | 10.00 | Partly Cloudy | FEW029 SCT038 | 39.9 | 32 | 73% | 34 | 29.98 | 1015.0 | ||||||
| 02 | 19:53 | NW 15 | 10.00 | Mostly Cloudy | SCT023 BKN032 | 41 | 33.1 | 73% | 34 | 29.96 | 1014.6 | ||||||
| Date | Time (akdt) | Wind (mph) | Vis. (mi.) | Weather | Sky Cond. | Air | Dwpt | Max. | Min. | Relative Humidity | Wind Chill (°F) | Heat Index (°F) | altimeter (in) | sea level (mb) | 1 hr | 3 hr | 6 hr |
| 6 hour | |||||||||||||||||
| Temperature (ºF) | Pressure | Precipitation (in) | |||||||||||||||